Powrót do katalogu

FENGYUN 1C DEB

AktywnyPO
NORAD 31546·DEBRIS·🇨🇳 China

Wystrzelony May 10, 1999 z Taiyuan Satellite Launch Center

Loading…

Następne Przeloty (najbliższe 24 godziny)

TLE

ŚwieżeSource: Space-Track

Epoka: Sep 14, 2026, 14:33 UTC

1 31546U 99025BYM 26257.60663389  .00001548  00000-0  74726-3 0  9994
2 31546  98.2249 310.5851 0142642  59.4277 302.0883 14.14674498986871

Śledź FENGYUN 1C DEB w czasie rzeczywistym z AllMySat

Download on the App Store